Weather History for Algona, IA

Change the Weather History Date:

Wednesday, November 2, 2011

  Actual Average Record
Temperature  
Mean Temperature 42 °F -  
Max Temperature 46 °F 49 °F 75 °F (2005)
Min Temperature 37 °F 32 °F 15 °F (1996)
Degree Days  
Heating Degree Days 24    
Moisture  
Dew Point 31 °F    
Average Humidity 62    
Maximum Humidity 81    
Minimum Humidity 46    
Precipitation  
Precipitation 0.07 in - - ()
Sea Level Pressure  
Sea Level Pressure 30.13 in    
Wind  
Wind Speed 13 mph (North)    
Max Wind Speed 23 mph    
Max Gust Speed 33 mph    
Visibility 10 miles    
Events Rain    
Averages and records for this station are not official NWS values.
T = Trace of Precipitation, MM = Missing Value Source: NWS Daily Summary

Daily Weather History Graph

Daily Weather History Graph

Search for Another Location

Airport:

Trip Planner

Search our weather history database for the weather conditions in past years. The results will help you decide how hot, cold, wet, or windy it might be!

Date:

Astronomy

Nov. 02, 2011 Rise Set
Actual Time 7:52 AM CDT 6:07 PM CDT
Civil Twilight 7:23 AM CDT 6:37 PM CDT
Nautical Twilight 6:49 AM CDT 7:11 PM CDT
Astronomical Twilight 6:16 AM CDT 7:44 PM CDT
Moon 2:12 PM CDT No Moon Set
Length of Visible Light 11h 14m
Length of Day
10h 15m
Waxing Crescent, 50% of the Moon is Illuminated
Nov 2
Waxing Crescent
Nov 10
Full
Nov 18
Last Quarter
Nov 25
New
Dec 2
First Quarter

Hourly Weather History & Observations

Time (CDT) Temp. Windchill Dew Point Humidity Pressure Visibility Wind Dir Wind Speed Gust Speed Precip Events Conditions
12:15 AM 46.4 °F 41.1 °F 32.0 °F 57% 30.00 in 10.0 mi North 11.5 mph 16.1 mph N/A   Scattered Clouds
12:35 AM 46.4 °F 40.4 °F 32.0 °F 57% 30.00 in 10.0 mi North 13.8 mph 19.6 mph N/A   Scattered Clouds
12:55 AM 46.4 °F 41.1 °F 30.2 °F 53% 30.00 in 10.0 mi North 11.5 mph 20.7 mph N/A   Clear
1:15 AM 46.4 °F 40.7 °F 30.2 °F 53% 30.01 in 10.0 mi North 12.7 mph 19.6 mph N/A   Clear
1:35 AM 46.4 °F 40.1 °F 30.2 °F 53% 30.01 in 10.0 mi North 15.0 mph 18.4 mph N/A   Mostly Cloudy
2:15 AM 44.6 °F 37.8 °F 30.2 °F 57% 30.02 in 10.0 mi North 15.0 mph - N/A   Overcast
2:35 AM 44.6 °F 37.4 °F 30.2 °F 57% 30.03 in 10.0 mi North 16.1 mph 21.9 mph N/A   Overcast
2:55 AM 44.6 °F 38.4 °F 30.2 °F 57% 30.05 in 10.0 mi North 12.7 mph 19.6 mph N/A   Overcast
3:15 AM 44.6 °F 38.1 °F 30.2 °F 57% 30.05 in 10.0 mi North 13.8 mph 18.4 mph N/A   Overcast
3:35 AM 44.6 °F 38.4 °F 30.2 °F 57% 30.06 in 10.0 mi North 12.7 mph 18.4 mph N/A   Overcast
3:55 AM 46.4 °F 40.4 °F 30.2 °F 53% 30.05 in 10.0 mi North 13.8 mph 21.9 mph N/A   Overcast
4:55 AM 44.6 °F 38.8 °F 30.2 °F 57% 30.08 in 10.0 mi North 11.5 mph 18.4 mph N/A   Overcast
5:55 AM 44.6 °F 37.8 °F 28.4 °F 53% 30.09 in 10.0 mi North 15.0 mph 19.6 mph N/A   Overcast
6:15 AM 44.6 °F 38.4 °F 28.4 °F 53% 30.10 in 10.0 mi North 12.7 mph 19.6 mph N/A   Overcast
6:35 AM 46.4 °F 39.8 °F 26.6 °F 46% 30.09 in 10.0 mi North 16.1 mph 21.9 mph N/A   Overcast
6:55 AM 46.4 °F 40.1 °F 26.6 °F 46% 30.09 in 10.0 mi North 15.0 mph 20.7 mph N/A   Overcast
7:35 AM 46.4 °F 40.1 °F 26.6 °F 46% 30.12 in 10.0 mi North 15.0 mph 21.9 mph N/A   Overcast
7:55 AM 46.4 °F 39.8 °F 26.6 °F 46% 30.11 in 10.0 mi North 16.1 mph 23.0 mph N/A   Overcast
8:15 AM 46.4 °F 39.5 °F 26.6 °F 46% 30.13 in 10.0 mi North 17.3 mph 26.5 mph N/A   Overcast
8:35 AM 46.4 °F 39.5 °F 28.4 °F 50% 30.13 in 10.0 mi North 17.3 mph 24.2 mph N/A   Overcast
8:55 AM 44.6 °F 36.6 °F 30.2 °F 57% 30.14 in 10.0 mi North 19.6 mph 27.6 mph N/A Rain Rain
9:35 AM 42.8 °F 34.3 °F 32.0 °F 66% 30.17 in 7.0 mi North 19.6 mph 29.9 mph N/A Rain Rain
9:55 AM 41.0 °F 31.6 °F 35.6 °F 81% 30.18 in 10.0 mi North 20.7 mph 26.5 mph 0.03 in Rain Rain
10:15 AM 41.0 °F 31.1 °F 35.6 °F 81% 30.16 in 7.0 mi North 23.0 mph 33.4 mph 0.02 in Rain Rain
10:35 AM 41.0 °F 31.4 °F 35.6 °F 81% 30.16 in 10.0 mi North 21.9 mph 31.1 mph 0.03 in Rain Light Rain
10:55 AM 41.0 °F 32.2 °F 35.6 °F 81% 30.16 in 10.0 mi North 18.4 mph 27.6 mph 0.04 in Rain Light Rain
11:15 AM 41.0 °F 31.9 °F 35.6 °F 81% 30.16 in 10.0 mi North 19.6 mph - N/A Rain Light Rain
11:35 AM 42.8 °F 34.0 °F 35.6 °F 76% 30.15 in 10.0 mi NNE 20.7 mph 26.5 mph N/A Rain Light Rain
11:55 AM 42.8 °F 34.8 °F 35.6 °F 76% 30.16 in 10.0 mi NNE 17.3 mph - N/A   Light Drizzle
12:15 PM 42.8 °F 35.8 °F 35.6 °F 76% 30.16 in 10.0 mi NNE 13.8 mph - N/A   Light Drizzle
12:35 PM 42.8 °F 37.0 °F 35.6 °F 76% 30.17 in 10.0 mi NNE 10.4 mph - N/A   Overcast
12:55 PM 42.8 °F 37.0 °F 35.6 °F 76% 30.16 in 10.0 mi NNE 10.4 mph - N/A   Mostly Cloudy
1:15 PM 42.8 °F 37.0 °F 35.6 °F 76% 30.15 in 10.0 mi North 10.4 mph - N/A   Mostly Cloudy
1:35 PM 42.8 °F 39.3 °F 35.6 °F 76% 30.14 in 10.0 mi North 5.8 mph - N/A   Mostly Cloudy
1:55 PM 42.8 °F 39.3 °F 37.4 °F 81% 30.15 in 10.0 mi NNW 5.8 mph - N/A   Mostly Cloudy
2:15 PM 44.6 °F 41.4 °F 35.6 °F 71% 30.16 in 10.0 mi North 5.8 mph - N/A   Overcast
2:35 PM 44.6 °F 40.7 °F 33.8 °F 66% 30.16 in 10.0 mi NNW 6.9 mph - N/A   Overcast
2:55 PM 44.6 °F 40.7 °F 33.8 °F 66% 30.16 in 10.0 mi NNW 6.9 mph - N/A   Mostly Cloudy
3:15 PM 44.6 °F 40.7 °F 35.6 °F 71% 30.16 in 10.0 mi NW 6.9 mph - N/A   Mostly Cloudy
3:35 PM 44.6 °F 40.2 °F 33.8 °F 66% 30.15 in 10.0 mi NNW 8.1 mph - N/A   Mostly Cloudy
3:55 PM 44.6 °F 40.2 °F 33.8 °F 66% 30.16 in 10.0 mi NNW 8.1 mph - N/A   Mostly Cloudy
4:15 PM 44.6 °F 39.7 °F 33.8 °F 66% 30.17 in 10.0 mi NNW 9.2 mph - N/A   Mostly Cloudy
4:35 PM 44.6 °F 38.8 °F 33.8 °F 66% 30.15 in 10.0 mi North 11.5 mph - N/A   Mostly Cloudy
4:55 PM 44.6 °F 39.2 °F 32.0 °F 61% 30.14 in 10.0 mi North 10.4 mph - N/A   Scattered Clouds
5:15 PM 44.6 °F 39.2 °F 30.2 °F 57% 30.15 in 10.0 mi North 10.4 mph - N/A   Clear
5:35 PM 44.6 °F 39.2 °F 30.2 °F 57% 30.16 in 10.0 mi North 10.4 mph - N/A   Scattered Clouds
5:55 PM 44.6 °F 38.8 °F 28.4 °F 53% 30.17 in 10.0 mi North 11.5 mph 16.1 mph N/A   Scattered Clouds
6:15 PM 42.8 °F 37.0 °F 28.4 °F 57% 30.18 in 10.0 mi North 10.4 mph - N/A   Scattered Clouds
6:35 PM 42.8 °F 37.5 °F 26.6 °F 53% 30.19 in 10.0 mi North 9.2 mph - N/A   Scattered Clouds
6:55 PM 42.8 °F 37.0 °F 26.6 °F 53% 30.19 in 10.0 mi North 10.4 mph - N/A   Scattered Clouds
7:15 PM 42.8 °F 37.5 °F 26.6 °F 53% 30.20 in 10.0 mi NNW 9.2 mph - N/A   Overcast
7:35 PM 41.0 °F 35.2 °F 26.6 °F 57% 30.20 in 10.0 mi North 9.2 mph - N/A   Scattered Clouds
7:55 PM 41.0 °F 35.2 °F 26.6 °F 57% 30.19 in 10.0 mi NNW 9.2 mph - N/A   Scattered Clouds
8:15 PM 39.2 °F 33.0 °F 26.6 °F 61% 30.19 in 10.0 mi North 9.2 mph - N/A   Mostly Cloudy
8:35 PM 39.2 °F 33.6 °F 26.6 °F 61% 30.19 in 10.0 mi North 8.1 mph - N/A   Mostly Cloudy
9:15 PM 37.4 °F 31.4 °F 24.8 °F 60% 30.20 in 10.0 mi North 8.1 mph - N/A   Clear
9:35 PM 37.4 °F 30.3 °F 24.8 °F 60% 30.21 in 10.0 mi North 10.4 mph - N/A   Clear
9:55 PM 37.4 °F 31.4 °F 24.8 °F 60% 30.20 in 10.0 mi North 8.1 mph - N/A   Clear
10:15 PM 37.4 °F 30.8 °F 26.6 °F 65% 30.20 in 10.0 mi North 9.2 mph - N/A   Clear
10:35 PM 37.4 °F 29.8 °F 24.8 °F 60% 30.19 in 10.0 mi North 11.5 mph - N/A   Clear
10:55 PM 37.4 °F 29.8 °F 24.8 °F 60% 30.19 in 10.0 mi North 11.5 mph - N/A   Clear
11:15 PM 37.4 °F 30.8 °F 24.8 °F 60% 30.21 in 10.0 mi North 9.2 mph - N/A   Clear
11:35 PM 37.4 °F 30.3 °F 24.8 °F 60% 30.20 in 10.0 mi North 10.4 mph - N/A   Clear
11:55 PM 37.4 °F 29.3 °F 24.8 °F 60% 30.18 in 10.0 mi North 12.7 mph - N/A   Clear